Theta_e
288 287 287 287 286 286 285 284 284 283 283 283 282 282 282 281 281 281 280 280 280 279 279 279 279 278 279 278 278 278 278 277 277 276 276 277 276 276 277 276 276 275
287 287 287 287 286 285 285 285 284 284 283 282 282 282 281 280 280 281 280 279 279 279 278 278 278 278 278 278 277 277 277 277 276 278 276 276 276 276 276 275 275 275
287 287 286 286 286 285 284 284 284 283 283 282 281 281 280 280 280 280 279 279 279 278 278 278 278 278 277 277 277 277 276 275 275 275 276 275 275 275 275 275 275 275
287 287 287 286 286 284 284 283 283 282 281 280 280 280 281 280 280 279 279 279 278 277 277 277 277 277 277 276 276 276 276 275 275 275 275 275 275 275 275 275 275 275
287 286 286 286 285 284 283 283 282 281 281 280 279 279 280 279 278 278 278 278 277 277 277 277 276 276 276 276 276 275 275 275 275 275 274 274 274 275 275 274 274 274
286 286 286 285 284 283 282 282 282 281 280 279 279 279 279 279 278 278 278 277 277 277 276 276 276 276 276 275 275 275 275 275 274 274 274 274 273 274 274 274 273 273
285 285 284 284 283 283 282 282 281 281 280 279 279 278 278 278 277 277 277 277 276 276 276 276 275 275 275 275 274 274 274 274 273 273 273 273 273 273 273 273 273 273
285 284 284 283 282 282 282 281 280 280 279 278 278 278 278 277 277 277 277 276 276 276 275 275 275 275 274 274 274 273 273 273 273 273 272 272 272 272 272 273 272 272
284 283 283 282 281 281 281 280 280 279 279 278 278 277 277 277 277 276 276 276 275 275 275 274 274 274 274 273 273 273 272 272 272 272 272 271 271 271 272 272 271 271
283 282 281 281 281 281 280 280 279 278 278 278 277 277 276 276 276 276 275 275 275 274 274 274 273 273 273 273 273 272 272 272 272 271 271 271 271 271 271 271 271 271
282 282 281 281 281 280 280 279 278 278 277 277 276 276 276 275 275 275 275 275 274 274 273 273 273 272 272 272 272 272 272 271 271 271 271 272 272 271 272 271 271 271
282 281 281 281 280 280 279 278 277 277 277 276 276 276 275 275 275 275 275 274 274 273 273 272 272 272 272 271 271 271 271 271 271 272 272 272 272 271 271 271 271 271
282 281 281 280 280 279 278 277 277 276 276 276 276 276 275 274 274 274 274 274 273 273 272 272 271 271 270 270 270 270 270 271 271 272 272 272 271 271 271 271 271 271
282 281 280 280 279 278 277 276 276 276 276 276 275 275 274 274 274 273 273 273 272 272 272 271 270 270 270 270 270 270 270 270 271 271 271 271 271 271 271 271 271 271
281 280 279 279 278 277 276 276 276 275 275 274 274 274 274 273 273 273 272 271 272 272 272 271 271 271 271 271 270 270 270 270 271 271 271 271 271 271 271 271 272 272
280 279 278 277 277 276 276 275 275 274 274 273 273 273 273 272 272 271 271 271 271 271 271 271 271 271 273 275 274 271 271 271 271 271 271 271 271 271 272 274 274 274
279 278 277 276 276 276 275 275 274 274 273 273 272 272 272 271 271 271 271 271 271 271 271 271 271 271 275 276 277 277 273 271 271 271 272 273 273 273 273 274 274 275
278 277 276 276 275 275 274 274 273 273 272 272 271 271 271 271 271 271 271 271 271 271 271 271 271 274 276 277 278 278 278 275 274 274 274 274 274 274 274 274 274 275
277 276 275 275 275 274 274 273 273 272 272 271 270 271 270 270 271 271 270 271 270 270 270 271 271 275 277 277 278 278 278 278 276 275 274 274 274 274 274 274 274 274
276 275 275 275 274 274 273 273 272 272 272 271 271 271 270 270 270 270 270 270 270 270 270 271 271 274 277 277 277 277 278 278 276 275 275 275 275 274 274 273 273 273
276 275 275 274 274 273 273 272 272 272 271 271 271 270 270 270 270 269 270 270 270 271 271 270 270 274 276 276 276 277 277 278 276 275 275 274 274 273 273 273 273 273
276 275 275 274 273 273 272 272 272 272 271 270 270 269 269 270 270 270 269 269 270 270 269 268 269 275 275 275 276 277 277 276 275 274 273 273 273 273 273 273 273 273
276 275 274 273 273 272 272 272 271 271 270 270 269 269 269 269 269 269 270 269 269 269 268 268 268 272 274 275 275 276 276 274 274 273 272 272 272 272 273 273 273 273
276 275 274 273 273 272 272 272 271 270 270 270 269 268 268 269 269 269 269 268 268 267 268 268 268 270 273 274 275 276 276 273 273 272 271 271 271 272 273 273 274 275
275 275 274 273 272 272 272 271 270 269 270 269 269 269 269 269 268 268 267 267 267 268 270 268 267 269 273 274 275 276 275 273 272 271 270 271 271 271 273 273 274 275
275 275 274 273 272 272 271 271 270 269 269 268 268 268 268 267 267 267 266 266 267 267 268 268 267 267 270 274 274 275 276 273 272 271 270 270 271 271 271 273 273 273
Wind_Speed
13 12 13 13 12 11 12 13 12 13 12 11 12 12 12 10 10 11 10 9 8 8 8 7 6 6 6 6 5 4 4 4 3 3 3 4 4 4 5 5 4 5
16 14 11 10 9 9 11 13 14 14 13 12 11 10 9 9 10 11 10 10 9 8 8 8 7 7 7 6 5 5 4 3 3 3 4 4 4 4 6 5 5 4
14 13 14 15 15 14 13 12 12 12 12 12 10 9 9 9 10 9 9 10 9 9 9 8 8 7 6 6 5 5 5 4 5 4 4 5 4 5 5 4 5 5
16 16 15 14 12 12 11 11 11 10 9 9 11 10 10 9 10 11 10 10 9 9 8 7 8 6 6 6 5 5 5 5 4 4 4 3 4 5 5 4 5 5
16 15 13 12 10 10 10 12 13 12 12 11 9 9 10 10 10 10 10 9 9 9 8 8 7 7 6 6 6 5 4 5 4 4 5 5 5 5 5 5 5 7
12 13 12 12 12 12 12 13 12 12 12 11 12 10 10 11 11 11 11 11 9 9 8 8 7 6 6 6 6 5 5 5 4 5 5 6 5 4 4 5 5 6
15 13 14 11 11 12 13 12 11 11 12 11 10 11 11 12 12 12 11 11 10 9 9 8 8 7 6 6 6 5 5 5 4 5 6 5 4 5 4 4 6 7
13 11 11 10 12 12 13 12 11 12 11 11 13 11 12 12 12 10 10 10 10 9 8 7 7 7 6 7 6 6 6 5 6 5 5 5 4 6 5 5 6 7
11 11 12 12 13 12 13 12 12 11 11 13 12 11 10 11 11 11 10 9 8 8 8 8 8 8 7 7 7 7 6 5 5 5 6 6 6 7 6 5 6 7
13 12 13 14 14 13 14 13 11 11 10 12 12 11 12 9 9 10 10 10 9 9 9 8 8 7 7 6 6 6 6 6 5 6 5 5 6 6 6 6 7 7
13 13 15 15 15 13 14 12 12 11 10 11 11 11 10 10 9 8 9 10 10 10 10 9 8 7 7 6 5 5 6 5 5 5 5 6 6 7 7 7 7 7
15 14 16 17 16 14 14 13 12 11 11 9 11 12 11 11 12 11 11 11 10 9 9 8 7 7 7 6 6 5 5 4 4 5 5 5 6 7 7 6 7 7
16 17 16 15 15 13 11 11 12 12 12 12 11 12 12 11 10 11 9 10 9 9 9 9 8 7 7 6 6 5 4 4 4 5 6 6 7 7 7 7 7 7
16 15 13 13 11 11 12 12 12 12 12 11 10 12 12 12 13 12 9 9 9 9 8 8 8 8 7 6 6 5 5 5 5 6 6 7 7 7 7 7 7 8
12 11 10 11 12 12 13 13 13 12 10 10 9 9 8 9 8 9 10 9 8 9 8 8 7 7 6 6 6 6 6 6 6 6 7 7 6 6 7 8 8 7
12 11 12 12 13 14 13 12 11 10 10 10 10 9 9 8 9 9 9 10 10 7 7 6 6 5 8 13 10 6 6 6 5 5 5 6 7 7 8 8 8 8
12 12 12 14 13 12 11 13 13 11 12 11 10 10 10 10 10 11 10 9 8 8 8 6 6 6 14 13 14 15 9 6 6 6 7 8 8 9 9 9 9 9
13 13 13 13 13 13 13 13 12 12 13 12 12 12 11 10 11 11 9 7 7 7 8 7 7 10 14 13 13 13 11 7 7 6 7 8 8 8 8 8 9 9
12 14 13 13 14 13 13 13 13 13 13 13 14 12 10 12 12 11 11 8 7 9 8 8 7 12 13 13 12 12 12 10 5 6 7 8 8 8 9 8 8 9
13 14 14 14 13 13 13 14 14 15 13 12 11 11 12 11 11 10 9 8 9 9 8 8 7 11 14 13 11 11 12 10 5 7 8 8 8 8 8 9 9 9
14 14 14 14 14 14 14 15 16 14 14 13 12 13 13 13 12 12 10 9 9 8 7 7 5 13 12 12 11 11 12 10 7 7 6 6 6 7 8 8 9 9
15 15 14 14 15 15 15 16 15 15 14 11 10 8 7 6 6 7 9 10 8 8 8 7 6 13 11 11 12 12 12 7 6 5 4 6 6 7 7 8 9 10
15 15 15 14 14 15 15 14 14 12 10 9 10 10 10 10 10 9 8 9 9 8 8 6 5 10 12 12 12 13 10 5 5 4 5 5 6 7 7 8 9 10
13 14 15 14 15 16 16 14 12 10 12 11 13 12 11 10 8 7 7 8 9 9 6 6 5 8 12 13 13 14 10 6 5 4 2 4 6 7 7 8 10 16
12 13 14 15 16 15 14 15 15 14 12 11 10 10 10 8 7 7 8 7 7 7 10 7 5 7 13 13 14 13 9 4 5 4 4 4 5 6 7 8 9 11
12 14 14 15 15 14 12 13 11 11 12 12 10 10 10 9 9 8 7 7 7 6 6 7 7 6 9 15 13 12 12 6 5 5 4 4 5 6 6 6 9 10
Wind_Direction
199 196 197 196 197 190 181 181 183 181 184 181 183 184 185 182 168 175 174 166 169 165 167 166 163 160 158 155 157 154 164 178 177 175 196 196 215 220 233 236 230 222
202 199 197 194 194 193 189 184 181 182 183 184 184 177 175 165 174 170 168 167 164 166 163 162 161 158 158 160 159 158 166 167 190 182 196 205 219 216 233 235 238 236
196 198 197 196 196 194 188 183 180 183 181 183 172 171 169 168 164 166 163 162 163 162 163 160 158 161 160 160 158 162 171 179 197 195 196 214 216 219 232 227 234 231
200 199 199 199 192 189 185 180 182 179 172 169 179 170 164 165 160 161 161 161 160 162 161 159 161 160 160 160 157 167 175 192 195 185 207 222 222 222 234 223 232 235
199 198 198 195 190 180 179 186 184 179 176 173 156 161 159 159 160 160 161 163 160 161 161 163 160 163 159 159 160 169 182 194 194 186 205 224 225 218 230 219 232 240
200 199 194 190 185 178 184 189 185 176 169 164 171 160 163 161 163 164 163 162 165 163 165 162 162 161 161 160 163 178 185 193 195 188 208 223 231 218 224 219 227 238
198 192 192 185 179 183 184 186 182 178 175 168 151 168 160 164 165 167 166 166 164 167 166 165 162 165 165 163 170 182 187 191 191 194 213 229 223 239 227 229 236 243
193 187 183 180 181 183 185 182 180 180 170 158 169 166 166 166 168 167 166 164 163 163 163 161 163 162 165 164 175 181 190 185 190 200 218 227 225 241 237 235 236 242
181 182 180 181 182 185 188 182 180 175 171 169 169 165 169 168 167 165 164 160 159 160 159 163 165 168 167 168 177 182 188 190 190 201 213 222 228 236 235 233 239 244
185 183 178 182 187 188 187 182 177 175 173 172 167 163 166 165 161 163 160 162 160 161 165 164 166 166 166 172 179 183 187 194 198 207 212 221 229 237 239 236 243 252
184 181 185 188 190 186 186 177 176 171 174 171 161 164 164 158 162 160 160 163 168 169 167 166 164 161 166 173 180 182 187 193 204 209 220 224 235 239 242 241 245 247
186 186 190 190 188 185 180 174 170 171 171 172 169 165 165 169 166 170 171 170 166 164 159 156 154 162 168 176 180 177 184 196 208 216 225 234 236 242 240 242 245 248
188 192 191 188 186 179 170 169 171 171 172 175 176 170 167 168 171 168 171 163 157 152 158 158 159 163 167 175 174 172 179 196 208 220 233 234 241 243 245 242 245 247
195 189 186 184 175 166 167 170 169 172 176 172 169 171 172 173 171 169 162 155 154 156 157 157 160 162 168 169 170 172 180 202 206 223 234 240 239 239 242 248 249 251
184 179 176 169 168 166 170 173 173 172 168 165 170 170 170 168 163 155 152 152 152 147 150 151 150 161 162 169 171 184 188 206 207 221 231 235 240 249 254 251 248 247
177 173 172 169 170 175 173 168 165 162 160 165 171 170 162 158 157 158 160 160 150 149 152 154 168 163 184 189 189 184 193 195 207 209 216 233 245 250 250 253 259 261
172 174 167 173 174 166 165 164 165 164 165 166 165 163 163 162 161 162 165 163 150 154 158 166 173 180 192 198 202 203 192 185 196 214 217 234 245 252 258 263 268 266
174 167 169 172 168 172 169 168 164 165 168 168 165 165 166 162 168 170 159 141 149 156 167 172 176 188 193 197 203 210 211 189 190 203 234 244 246 250 259 268 271 274
168 169 171 172 176 170 168 166 167 168 168 167 173 170 161 170 170 164 168 158 155 162 169 174 173 189 192 195 202 209 217 222 217 230 232 239 247 254 262 267 275 278
170 171 175 175 170 167 166 169 170 176 173 170 163 163 169 171 169 167 162 157 165 167 166 170 168 183 188 195 200 209 217 218 223 227 235 241 245 257 264 270 272 272
173 175 175 172 170 169 170 174 175 171 170 171 170 171 171 174 172 171 174 169 167 165 155 155 158 179 186 192 198 208 211 218 223 225 226 237 251 258 262 265 271 272
175 176 174 172 172 172 174 176 176 174 170 164 160 162 162 155 162 164 163 166 166 162 157 158 165 181 184 192 200 205 210 214 211 210 227 242 251 259 266 269 270 271
177 174 173 172 171 172 177 174 171 165 162 158 159 165 165 170 171 171 166 160 160 162 161 158 165 188 190 196 202 203 205 192 193 204 220 243 261 267 269 270 271 270
175 172 171 172 172 178 177 174 168 163 167 166 166 163 170 175 162 152 155 160 162 167 153 151 160 189 197 199 200 202 199 180 191 175 209 239 262 265 268 272 273 276
171 172 174 174 178 178 174 170 172 171 165 162 166 166 167 156 153 141 142 153 156 140 172 168 160 195 202 200 201 200 196 165 173 175 200 236 261 269 271 278 276 279
175 177 176 176 175 171 170 172 163 160 165 164 162 161 160 158 152 148 137 146 150 149 180 174 178 198 206 200 197 196 194 176 167 185 207 226 260 266 265 258 278 287